Simultaneous Nadir Overpasses (SNOs) Predictions

Prediction of SNOs between AQUA and METOP-B Satellite Orbit:

Table of predicted SNOs for the next 14.0 days since TLE Epoch: 7/15/2016
Index Date (AQUA) Time (AQUA) Lat,Lon (AQUA) SZA (AQUA ) Date (METOP-B) Time (METOP-B) Lat,Lon (METOP-B) SZA (METOP-B ) Distance(km) Time Diff (sec)
1 07/16/2016 09:01:10 73.73, 39.13 52.52 07/16/2016 09:00:38 73.73, 39.03 52.54 3.35 32
2 07/16/2016 09:50:37 -73.80,-153.39 127.39 07/16/2016 09:51:18 -73.82,-153.45 127.38 2.29 41
3 07/19/2016 03:45:43 -73.04, -60.64 127.73 07/19/2016 03:44:38 -73.00, -63.56 127.63 95.21 65
4 07/19/2016 04:35:24 73.75, 105.52 53.05 07/19/2016 04:35:03 73.74, 105.44 53.04 2.88 21
5 07/19/2016 05:24:51 -73.82, -86.99 126.88 07/19/2016 05:25:43 -73.83, -87.02 126.88 1.17 52
6 07/21/2016 23:20:06 -73.54, 4.78 126.65 07/21/2016 23:18:54 -73.45, 3.85 126.68 30.79 72
7 07/22/2016 00:09:38 73.79, 171.89 53.62 07/22/2016 00:09:27 73.79, 171.97 53.63 2.48 11
8 07/22/2016 00:59:05 -73.85, -20.61 126.30 07/22/2016 01:00:08 -73.83, -20.60 126.33 1.50 63
9 07/24/2016 18:54:22 -73.73, 70.81 125.86 07/24/2016 18:53:13 -73.71, 70.84 125.87 2.72 69
10 07/24/2016 19:43:50 73.78,-121.65 54.20 07/24/2016 19:43:51 73.79,-121.63 54.21 1.31 1
11 07/24/2016 20:33:18 -73.88, 45.75 125.68 07/24/2016 20:34:31 -73.89, 45.94 125.69 5.68 73
12 07/27/2016 14:28:35 -73.73, 137.27 125.24 07/27/2016 14:27:38 -73.71, 137.25 125.24 1.78 57
13 07/27/2016 15:18:03 73.78, -55.21 54.83 07/27/2016 15:18:16 73.78, -55.24 54.84 0.96 13




NCC Satellite Simultaneous Nadir Overpasses (SNOs) Prediction Service
